Weather observations for the past three days for
Alexandria, Chandler Field
Imperial (Metric)
Date Time (cdt) Wind (mph) Vis. (mi.) Weather Sky Cond. Temperature (ºF) Relative Humidity Wind Chill (°F) Heat Index (°F) Pressure Precipitation (in)
Air Dwpt 6 hour altimeter (in) sea level (mb) 1 hr 3 hr 6 hr
Max. Min.
24 00:53 E 5 10.00 Fair CLR 64.9 59 80.1 64.9 81% 29.9 1011.9
23 23:53 E 5 10.00 Fair CLR 66.9 59 76% 29.9 1012.0
23 22:53 E 3 10.00 Fair CLR 68 59 73% 29.9 1011.9
23 21:53 NE 5 10.00 Fair CLR 69.1 60.1 73% 29.89 1011.6
23 20:53 N 5 10.00 Fair CLR 73.9 60.1 62% 29.88 1011.5
23 19:53 N 5 10.00 Fair CLR 78.1 57.9 50% 79 29.89 1011.6
23 18:53 NW 8 10.00 Fair CLR 80.1 57 82 77 45% 80 29.89 1011.6
23 17:53 NW 9 10.00 Fair CLR 81 57 44% 81 29.9 1011.8
23 16:53 NW 12 G 21 10.00 A Few Clouds FEW055 81 57.9 45% 81 29.89 1011.6
23 15:53 NW 12 10.00 Fair CLR 81 57.9 45% 81 29.89 1011.5
23 14:53 NW 14 10.00 Partly Cloudy FEW047 SCT055 80.1 60.1 51% 81 29.89 1011.6
23 13:53 W 13 10.00 A Few Clouds FEW041 78.1 60.1 54% 79 29.9 1011.9
23 12:53 W 10 10.00 Partly Cloudy SCT038 SCT047 78.1 63 79 64 60% 80 29.9 1012.0
23 11:53 W 9 10.00 Fair CLR 77 63 62% 79 29.9 1012.1
23 10:53 NW 9 10.00 Fair CLR 73.9 63 69% 29.9 1012.3
23 09:53 W 9 10.00 Fair CLR 71.1 64 79% 29.9 1012.3
23 08:53 W 6 10.00 Partly Cloudy SCT004 68 64.9 90% 29.9 1012.2
23 07:53 W 7 5.00 Fog/Mist OVC003 66 64.9 96% 29.9 1012.2
23 06:53 W 8 5.00 Fog/Mist OVC002 64 63 64 61 96% 29.89 1011.9
23 05:53 W 6 0.50 Fog VV002 63 62.1 97% 29.88 1011.6
23 04:53 SW 6 8.00 Partly Cloudy SCT003 61 60.1 97% 29.87 1011.5
23 03:53 SW 6 10.00 Partly Cloudy SCT026 62.1 61 96% 29.87 1011.4
23 02:53 SW 6 9.00 Mostly Cloudy BKN032 62.1 61 96% 29.87 1011.5
23 01:53 Calm 5.00 Fog/Mist SCT039 BKN047 61 61 100% 29.88 1011.8
23 00:53 Calm 9.00 Mostly Cloudy BKN065 62.1 61 66 60.1 96% 29.89 1012.0
22 23:53 Calm 10.00 Overcast OVC055 61 60.1 97% 29.89 1012.3
22 22:53 SW 3 10.00 Fair CLR 60.1 59 96% 29.89 1012.1
22 21:53 NE 3 10.00 Fair CLR 63 61 93% 29.88 1011.7
22 20:53 Calm 10.00 Overcast BKN011 BKN015 OVC021 66 63 90% 29.87 1011.3
22 19:53 N 6 10.00 Overcast OVC014 66 62.1 87% 29.87 1011.2
22 18:53 NE 5 10.00 Overcast OVC011 66 63 66 64 90% 29.86 1011.0 0.08
22 17:53 N 6 10.00 Overcast OVC010 66 62.1 87% 29.87 1011.1
22 16:53 N 6 10.00 Overcast OVC010 66 63 90% 29.86 1011.1
22 15:53 N 7 10.00 Overcast SCT008 BKN012 OVC065 64.9 63 93% 29.87 1011.4 0.03 0.08
22 14:53 N 7 10.00 Overcast OVC007 64.9 62.1 90% 29.87 1011.2
22 13:53 NE 10 10.00 Mostly Cloudy BKN006 64.9 63 93% 29.82 1009.7 0.05
22 12:53 NE 3 3.00 Rain Fog/Mist OVC011 64 62.1 64.9 63 93% 29.88 1011.7 0.16 0.16
22 11:53 N 3 10.00 Overcast OVC009 64.9 62.1 90% 29.88 1011.5
22 10:53 NE 5 10.00 Overcast OVC004 64 62.1 93% 29.88 1011.6
22 09:53 NE 7 9.00 Overcast OVC004 64 62.1 93% 29.87 1011.4
22 08:53 NE 8 10.00 Overcast OVC005 64 62.1 93% 29.89 1012.1
22 07:53 E 7 1.75 Fog/Mist OVC004 63 62.1 97% 29.91 1012.5
22 06:53 NE 7 5.00 Fog/Mist OVC005 63 62.1 64.9 63 97% 29.91 1012.5
22 05:53 NE 10 5.00 Fog/Mist OVC004 63 62.1 97% 29.91 1012.5
22 04:53 NE 7 8.00 Overcast OVC004 63 62.1 97% 29.92 1012.9
22 03:53 NE 8 3.00 Fog/Mist OVC004 64 63 96% 29.93 1013.3
22 02:53 E 7 3.00 Fog/Mist OVC005 64 63 96% 29.94 1013.7
22 01:53 E 9 2.50 Fog/Mist OVC007 64 63 96% 29.96 1014.4
22 00:53 E 10 8.00 Overcast OVC008 64.9 62.1 70 64.9 90% 29.98 1014.8
21 23:53 E 10 5.00 Fog/Mist OVC011 64.9 62.1 90% 30 1015.6
21 22:53 E 12 10.00 Overcast SCT015 OVC024 66 61 84% 30.01 1016.0
21 21:53 NE 9 10.00 Overcast BKN019 OVC024 66.9 62.1 84% 30.03 1016.8
21 20:53 E 8 10.00 Overcast OVC020 68 62.1 81% 30.03 1016.9
21 19:53 E 14 10.00 Mostly Cloudy BKN017 69.1 63 81% 30.03 1016.8
21 18:53 E 12 10.00 Overcast BKN016 OVC027 70 63 72 69.1 79% 30.05 1017.4
21 17:53 E 10 10.00 Overcast FEW016 OVC025 70 63 79% 30.07 1018.2
21 16:53 E 9 10.00 Overcast OVC021 70 63 79% 30.09 1018.9
21 15:53 E 9 10.00 Overcast OVC017 70 63 79% 30.11 1019.5
21 14:53 E 10 10.00 Overcast SCT016 OVC021 70 63 79% 30.13 1020.1
21 13:53 E 12 10.00 Overcast OVC014 71.1 64 79% 30.16 1021.0
21 12:53 E 9 10.00 Overcast OVC013 70 62.1 70 62.1 76% 30.17 1021.7
21 11:53 E 8 10.00 Overcast OVC010 68 62.1 81% 30.17 1021.7
21 10:53 E 10 7.00 Overcast OVC006 66 62.1 87% 30.19 1022.3
21 09:53 E 6 9.00 Overcast OVC007 64 61 90% 30.21 1022.9
21 08:53 E 8 10.00 Overcast OVC006 63 61 93% 30.19 1022.4
21 07:53 E 10 10.00 Overcast OVC006 62.1 60.1 93% 30.19 1022.3
21 06:53 E 12 10.00 Overcast FEW006 BKN013 OVC025 62.1 59 62.1 60.1 90% 30.2 1022.5
21 05:53 NE 7 8.00 Overcast OVC014 61 60.1 97% 30.21 1023.0
21 04:53 E 7 6.00 Fog/Mist OVC019 61 59 93% 30.21 1023.0
21 03:53 E 3 5.00 Fog/Mist OVC023 61 59 93% 30.24 1023.8
21 02:53 E 6 10.00 Fair CLR 60.1 57.9 93% 30.24 1023.9
21 01:53 E 6 10.00 Fair CLR 60.1 57 90% 30.25 1024.6
Date Time (cdt) Wind (mph) Vis. (mi.) Weather Sky Cond. Air Dwpt Max. Min. Relative Humidity Wind Chill (°F) Heat Index (°F) altimeter (in) sea level (mb) 1 hr 3 hr 6 hr
6 hour
Temperature (ºF) Pressure Precipitation (in)